Wind_Speed
28 27 26 25 25 24 23 23 22 22 21 21 20 18 16 15 13 12 12 11 10 10 10 11 12 13 13 14 14 14 13 14 15 17 19 20 22 23 24 25 25 26 26 27 28 29 30 31 32 29 25 21 13 5 5 12 14 14 14 14 13 12 11 10 12 15 16 16 17 17 16 13 11 12 13 15 15 15 14 15 15 16 16 17 17 18 18 19
31 30 29 28 28 27 26 25 25 24 23 23 23 22 20 18 16 15 14 13 12 11 11 11 11 12 13 13 14 14 13 12 13 14 16 18 19 21 22 24 24 24 25 26 27 28 29 30 31 31 28 25 20 10 1 9 15 16 17 15 13 11 9 8 10 13 13 13 13 12 11 9 8 10 11 11 10 9 8 8 9 9 9 10 12 13 14 14
34 33 33 32 31 30 29 28 28 27 26 25 25 24 23 22 20 18 16 15 14 13 12 11 11 12 13 13 14 14 13 12 11 12 14 15 17 18 20 22 23 23 24 24 25 26 27 28 30 32 30 27 24 17 8 3 12 18 19 16 13 10 7 7 9 9 8 8 6 5 6 6 6 8 8 6 5 4 4 3 3 2 2 4 6 7 7 8
37 36 36 35 34 34 33 32 31 30 29 28 27 26 26 25 24 22 20 18 16 15 15 14 13 12 13 14 14 14 15 13 11 10 11 13 15 16 18 19 21 22 23 23 24 24 25 27 28 30 31 28 26 23 16 6 3 12 17 17 15 11 7 7 8 7 6 5 3 2 4 3 4 5 6 6 5 5 4 4 3 2 2 0 1 2 3 4
39 39 39 38 38 37 36 35 34 33 32 31 30 29 28 27 26 25 24 21 19 17 17 17 15 14 13 14 15 15 15 15 13 10 10 11 12 14 15 17 19 20 21 22 22 23 23 25 26 28 29 29 27 25 21 14 6 4 12 15 14 11 8 8 9 8 7 6 4 3 4 5 7 8 9 9 9 8 8 7 4 3 2 2 2 3 3 4
40 41 41 41 40 40 39 39 38 37 36 34 33 32 31 30 29 28 27 25 23 21 19 19 18 16 15 14 15 16 16 16 15 12 10 10 11 12 13 14 16 18 20 20 21 21 22 23 24 25 27 28 28 26 24 18 12 5 6 11 12 10 9 9 9 9 8 6 6 5 6 7 9 10 10 10 10 9 8 7 4 2 1 2 3 4 5 6
41 41 42 42 42 42 42 41 41 40 39 38 37 35 34 32 31 30 29 28 27 25 23 22 21 19 18 16 16 17 17 17 17 15 12 10 10 11 11 12 14 16 17 19 20 20 21 21 22 23 25 26 27 27 25 22 17 9 5 7 9 9 9 8 8 8 6 5 5 5 5 6 7 9 9 8 8 7 5 4 3 2 1 2 4 6 7 8
43 43 42 42 43 43 43 43 43 42 42 41 40 39 37 36 35 33 32 31 30 29 27 25 24 22 21 19 18 18 18 18 19 18 15 12 11 11 10 10 11 13 15 17 18 19 20 20 20 22 23 24 26 27 25 24 21 15 9 6 8 9 9 8 8 7 5 4 4 3 1 2 4 7 8 8 5 3 2 2 2 1 1 2 4 6 8 9
46 45 45 44 44 44 44 44 44 44 43 43 43 42 41 39 38 36 35 34 33 32 30 29 27 26 25 23 21 20 20 20 20 20 17 14 12 11 11 10 10 11 13 14 16 18 18 19 19 20 21 22 23 25 25 23 22 19 14 10 10 11 10 9 8 6 4 3 2 1 1 3 2 4 7 6 5 4 3 2 1 0 1 1 2 4 6 8
49 49 48 47 47 46 45 45 45 44 44 44 44 44 43 42 41 40 39 37 37 35 34 33 31 30 28 26 24 22 22 23 22 21 20 17 15 13 12 11 10 10 11 12 13 15 17 17 18 18 19 20 21 22 24 23 21 20 18 17 17 15 12 9 7 5 3 1 2 2 3 4 3 4 6 6 6 5 4 2 0 1 1 1 1 1 2 3
53 52 52 51 50 49 48 48 47 46 45 45 44 44 45 45 43 42 42 41 40 39 38 37 36 34 32 31 28 24 24 26 24 23 22 20 18 15 14 13 12 10 11 10 11 13 15 16 16 17 16 17 18 19 21 22 20 18 18 20 22 20 15 10 5 3 1 3 5 5 5 5 5 5 6 6 5 5 4 3 1 1 2 2 3 4 3 3
57 56 55 55 54 53 52 51 50 49 47 46 45 45 45 45 45 44 44 44 43 42 41 40 39 37 36 35 31 28 29 29 27 25 24 23 21 18 16 15 14 13 12 11 10 11 13 13 14 15 15 15 16 16 19 21 20 18 18 22 25 22 17 12 7 2 2 6 7 8 9 8 6 5 5 5 4 4 5 5 4 4 3 4 6 7 8 8
60 60 59 59 58 57 56 55 54 52 50 49 47 46 46 46 45 45 45 45 45 45 44 43 42 40 39 38 33 33 34 31 29 27 25 25 24 21 18 17 16 15 14 12 10 9 11 12 12 13 14 13 14 14 16 18 19 18 18 22 24 21 17 13 10 6 2 2 5 8 8 4 2 1 1 3 4 5 7 8 7 6 6 7 9 11 12 13
64 63 63 62 62 61 60 59 58 56 54 52 51 49 49 48 47 46 46 46 46 46 45 45 44 43 43 40 36 38 38 33 31 28 27 27 26 24 21 19 18 18 16 14 12 10 10 11 11 11 12 12 12 13 14 16 17 17 17 20 22 20 17 13 11 10 9 7 4 3 3 4 5 5 5 5 6 8 9 9 9 8 8 9 12 15 16 17
67 67 67 66 65 65 64 63 62 60 58 56 54 53 53 52 50 48 48 48 47 46 45 45 46 45 46 43 40 43 41 35 32 31 30 29 29 27 24 22 20 20 18 17 15 12 10 11 10 10 11 11 10 11 11 12 14 14 15 16 19 18 17 14 11 11 11 10 8 8 8 7 6 6 6 5 7 9 10 10 8 9 9 11 13 16 17 17
70 70 70 69 69 68 68 67 66 65 62 60 58 57 57 56 55 52 51 50 49 47 45 46 46 47 48 45 43 46 43 37 34 34 34 32 32 30 27 26 23 21 20 19 19 15 12 12 12 10 10 11 9 9 9 10 11 11 12 13 14 14 14 14 13 11 10 10 9 10 10 10 9 9 8 7 7 9 10 9 9 9 10 12 13 14 14 14
71 72 72 72 72 72 71 71 70 69 66 64 62 60 60 60 59 57 56 54 52 50 47 47 47 47 48 46 45 48 45 40 38 38 38 37 36 34 31 30 26 23 22 22 22 19 15 14 13 12 11 11 10 8 7 7 8 8 8 9 9 9 9 10 11 11 10 10 11 11 12 12 12 11 11 10 10 11 11 10 10 10 10 10 10 10 10 10
73 73 74 74 74 74 74 74 74 73 71 68 66 65 64 64 63 61 60 58 56 53 51 50 49 48 49 47 46 48 46 41 41 42 42 40 38 37 35 32 29 25 23 24 25 22 19 17 17 14 12 12 11 10 7 5 5 5 5 5 6 6 6 5 6 7 8 8 8 10 11 12 11 10 9 9 10 11 11 11 10 9 8 7 7 7 7 8
74 75 75 76 76 76 76 77 77 76 75 72 70 69 68 68 67 66 64 63 60 58 56 54 52 51 51 49 47 48 46 43 43 45 43 41 40 39 38 35 32 28 26 28 29 26 22 20 20 18 15 14 13 11 10 7 5 4 4 3 3 3 4 4 3 2 3 4 4 6 7 8 8 7 7 6 7 8 9 10 9 8 7 6 6 7 7 8
72 74 75 77 77 78 78 79 80 79 78 76 74 72 72 71 70 69 69 67 65 63 61 58 56 55 55 53 49 48 47 44 45 46 45 43 42 41 40 37 35 32 30 32 32 29 25 24 25 22 18 16 14 14 13 10 7 5 4 3 3 2 2 2 2 1 0 1 2 3 4 4 4 4 4 4 4 5 6 7 7 7 7 6 6 7 8 8
66 69 71 74 76 78 78 80 81 82 81 80 78 76 75 75 74 73 72 72 71 68 66 63 60 60 60 57 53 50 49 46 46 47 47 46 44 43 41 40 37 36 35 36 35 31 28 30 29 24 21 18 16 16 15 14 11 9 8 6 5 3 3 3 3 3 2 1 1 2 2 2 2 2 2 2 3 3 4 5 6 6 5 5 5 6 7 8
61 63 66 68 71 74 76 78 80 82 83 83 82 80 78 78 77 76 75 76 76 72 70 68 64 64 65 61 57 54 51 49 49 50 49 48 46 44 43 41 40 40 40 38 35 33 33 36 34 27 24 22 19 19 18 17 15 14 12 10 8 6 5 5 5 5 4 2 2 2 2 1 1 1 1 1 2 3 4 4 5 4 4 3 4 4 4 5
56 58 61 63 66 68 70 73 76 79 82 83 84 83 82 81 80 79 77 79 81 77 73 72 70 70 70 64 59 56 55 55 54 52 51 49 48 46 45 43 43 43 42 39 37 37 39 42 38 30 27 26 23 22 20 20 19 18 16 14 12 10 7 7 7 7 5 4 3 2 2 1 1 1 1 1 2 2 3 4 4 3 3 2 1 0 1 2
53 55 57 59 62 64 66 68 71 73 76 80 83 84 85 84 83 81 79 80 85 83 77 75 75 76 74 69 63 60 61 61 59 56 53 52 52 50 47 46 45 45 43 42 41 41 44 45 40 32 30 29 27 25 24 23 23 22 20 18 18 14 10 9 9 8 8 7 6 5 4 3 3 3 2 2 2 3 3 3 3 3 4 4 4 4 4 4
52 53 54 56 58 60 62 64 66 68 71 74 77 80 83 85 85 85 83 81 86 89 83 78 78 79 79 74 68 65 65 65 64 61 57 56 56 53 51 49 47 46 45 44 43 44 48 48 41 35 33 32 31 30 28 28 26 25 24 22 21 18 14 13 12 10 9 8 8 8 7 6 6 6 5 4 4 4 5 5 5 6 7 8 8 7 7 7
51 52 53 53 55 57 59 60 61 63 66 69 71 74 78 82 84 85 86 84 86 92 90 83 80 81 82 79 73 70 69 69 70 66 60 59 60 57 55 52 50 49 47 46 45 45 50 50 42 37 36 35 34 33 32 32 30 29 28 25 23 20 18 18 15 13 11 9 10 11 10 9 8 8 8 8 7 7 7 7 7 8 9 10 10 10 10 10
53 53 54 54 54 55 56 57 57 58 61 65 67 69 72 76 79 81 85 86 87 94 94 88 84 83 83 82 78 73 73 75 75 69 64 64 64 61 58 55 53 53 51 48 45 45 51 51 44 40 39 37 36 36 37 36 34 34 33 27 24 22 21 21 19 17 14 11 12 13 12 11 10 9 9 9 10 10 9 9 9 8 9 10 11 12 11 11
55 55 56 56 55 56 57 55 54 54 57 61 63 65 68 71 73 75 79 82 87 95 97 93 89 85 84 84 82 78 77 80 79 73 70 70 68 65 61 59 58 57 55 51 47 47 52 53 47 44 43 40 39 40 42 39 37 39 36 29 26 24 22 22 22 21 17 14 16 16 14 13 12 12 11 10 11 11 10 11 11 10 9 10 12 13 13 13
56 56 57 58 57 57 59 56 52 51 53 57 59 61 64 66 68 70 73 76 83 93 97 95 92 88 86 86 84 82 80 83 83 78 75 74 71 69 66 64 63 62 59 55 51 51 54 55 50 46 43 42 42 44 44 41 41 42 37 31 29 26 23 23 24 24 20 19 21 18 16 15 13 14 14 12 13 13 11 12 12 12 11 11 12 13 13 13
57 57 56 58 58 58 60 58 53 51 51 53 55 58 60 62 64 66 68 70 78 87 92 95 94 92 89 88 86 85 84 85 86 82 79 77 75 73 71 69 67 65 62 58 55 55 56 57 53 47 44 43 45 46 45 44 45 44 37 33 31 28 26 24 25 25 22 24 27 23 20 18 16 17 16 14 15 15 14 14 15 15 14 14 15 14 14 14
58 58 57 58 59 59 60 59 55 53 53 52 52 55 56 57 60 61 62 67 74 80 85 90 93 93 92 91 89 87 87 88 87 85 82 81 79 77 74 72 70 68 64 61 58 58 59 59 55 50 46 46 46 46 45 46 48 45 38 35 33 31 29 26 26 26 24 29 33 27 23 23 20 20 18 17 18 17 17 18 17 17 16 16 17 17 16 16
60 60 59 59 59 61 61 59 57 57 57 54 52 52 53 54 53 54 58 66 72 75 78 83 87 90 93 93 92 90 90 90 89 87 85 84 83 80 78 76 74 71 68 64 62 60 60 59 58 54 50 48 48 48 46 47 49 46 40 37 36 34 32 29 28 28 27 33 36 30 26 27 25 23 21 21 20 19 20 21 20 20 19 19 19 19 19 19
63 62 62 60 60 62 62 60 60 59 59 59 55 51 51 49 47 49 56 64 69 72 74 76 80 85 90 94 95 93 93 92 91 89 88 87 85 83 81 80 77 75 72 69 67 64 62 62 61 57 53 50 49 49 48 47 49 48 45 41 39 37 35 33 32 33 33 36 38 33 28 29 30 27 25 24 22 22 24 23 23 24 23 23 23 22 22 21
65 64 64 63 62 62 62 62 62 61 60 60 58 53 50 46 46 50 56 61 67 69 70 71 74 79 85 91 95 96 95 95 93 92 91 89 87 86 84 82 80 77 75 74 72 69 67 66 63 59 55 52 50 50 50 49 51 52 50 46 43 41 39 38 38 38 38 39 40 35 28 31 34 30 27 27 26 26 27 27 27 28 27 27 26 26 25 25
66 66 66 66 64 63 63 64 65 64 61 60 60 55 49 48 50 54 56 59 63 65 66 68 71 75 79 86 92 96 97 97 96 95 93 91 89 87 86 84 82 80 78 76 74 72 71 69 66 63 60 57 55 54 54 54 54 54 53 49 44 42 43 43 42 42 42 41 39 35 30 33 36 31 28 30 30 29 29 30 31 31 30 30 30 30 29 28
68 68 68 67 66 65 64 65 66 66 63 61 60 56 53 53 54 56 57 57 59 62 63 65 68 71 75 81 87 92 96 98 99 97 95 93 90 89 88 87 85 83 81 79 76 75 73 69 69 68 65 62 61 59 59 59 56 56 55 49 45 47 49 48 45 44 44 41 38 36 33 35 37 34 32 33 32 32 31 32 34 34 34 34 33 33 32 32
70 70 69 68 67 67 66 66 67 67 65 62 60 57 56 56 57 58 59 57 57 58 60 62 65 68 72 76 81 88 93 97 100 99 97 95 92 91 89 88 87 85 83 82 80 78 75 72 72 72 68 65 65 64 63 63 60 58 55 51 51 54 53 50 47 45 44 41 38 38 36 36 37 37 37 36 35 35 33 33 35 36 36 36 36 36 35 35
72 72 71 69 68 68 68 67 68 68 66 63 59 57 57 58 60 61 61 58 55 54 56 59 62 65 70 73 77 83 90 95 98 99 99 97 94 92 91 90 89 87 86 86 83 81 79 77 76 76 73 70 70 69 67 66 63 59 56 55 57 57 53 49 47 46 45 42 40 40 40 38 37 39 41 40 38 38 36 34 35 38 38 38 38 38 38 38
73 74 73 71 70 69 69 69 69 68 66 62 59 58 59 61 63 63 61 58 55 53 53 55 59 62 66 70 75 80 86 92 96 98 99 98 96 94 93 92 91 90 89 88 86 84 81 79 79 80 78 76 76 74 69 66 64 60 59 59 59 57 53 50 48 46 45 43 41 41 41 38 38 42 44 42 40 40 39 37 38 39 40 40 39 40 40 41
74 75 74 73 72 70 69 69 69 68 65 62 61 61 61 62 64 65 62 59 56 54 51 52 55 59 63 69 74 78 82 88 93 96 98 98 97 97 96 94 92 92 91 90 88 87 85 82 80 81 82 81 79 75 67 64 66 65 63 62 61 58 55 53 51 49 46 44 43 42 41 40 41 44 45 44 43 42 41 42 41 42 43 43 42 42 42 43
75 76 76 75 73 72 70 69 68 67 65 63 63 63 63 63 65 65 64 61 57 55 51 50 52 56 61 67 73 77 80 84 89 93 95 96 97 98 98 97 95 94 93 92 89 88 86 83 81 82 84 81 77 73 69 68 71 71 67 65 63 62 60 58 55 51 49 48 46 45 43 43 45 47 47 46 45 44 44 45 44 44 45 45 45 45 45 46
77 77 77 76 75 73 72 70 69 68 66 65 65 65 65 64 64 65 65 62 59 57 54 51 51 54 60 66 72 77 79 81 85 89 92 94 96 98 100 99 97 96 95 92 89 88 87 85 84 84 83 80 77 76 75 74 76 76 72 68 67 66 64 61 57 54 53 51 48 48 46 45 47 49 48 47 46 46 46 46 45 44 46 47 48 48 48 48
77 78 78 76 75 75 72 71 70 69 68 67 67 65 64 63 63 64 65 63 61 60 57 53 51 53 58 64 70 75 77 78 82 86 89 91 94 97 100 100 98 97 96 92 90 89 89 87 85 84 83 81 81 81 81 79 79 78 73 68 66 66 63 61 59 57 56 53 51 50 47 44 46 48 48 46 46 47 47 46 45 45 47 49 50 50 50 50
76 77 77 75 74 74 71 69 69 68 67 67 66 64 63 62 63 63 65 65 64 62 58 54 52 53 57 63 68 72 75 77 79 83 86 88 90 95 99 100 100 98 96 93 91 91 90 88 85 85 85 85 86 86 84 82 79 76 71 66 65 64 63 63 62 60 59 55 54 52 46 43 45 48 48 47 47 48 48 47 47 47 50 51 51 51 51 51
76 75 75 74 73 73 71 68 67 66 65 65 65 64 64 64 63 64 66 66 65 63 61 56 54 54 57 61 65 68 73 76 77 80 83 85 88 91 96 100 101 99 96 93 92 93 92 89 87 87 87 86 85 83 80 77 75 73 70 67 66 66 66 66 65 64 61 58 57 54 47 45 47 49 50 50 50 51 50 49 49 50 51 52 52 51 51 52
76 75 75 74 73 73 72 69 68 67 66 65 64 65 65 65 65 66 67 67 66 65 63 60 56 55 56 58 61 65 70 73 75 78 81 84 85 89 94 99 101 99 96 94 94 95 94 92 90 89 87 85 82 79 77 76 76 75 72 69 69 69 70 70 70 67 63 61 60 56 51 51 51 52 53 54 54 53 52 51 51 51 52 53 51 51 51 52
79 78 78 78 76 75 74 73 71 70 69 68 67 66 67 67 67 68 68 68 67 67 66 64 61 58 57 58 59 61 64 69 72 76 79 81 83 86 92 97 99 98 96 95 95 96 95 93 91 89 87 85 83 81 80 80 80 78 76 73 73 73 74 74 73 68 65 65 62 58 56 57 55 55 56 57 57 55 54 54 54 53 53 52 50 50 52 53
83 82 82 83 80 78 78 77 75 74 73 71 70 70 69 69 69 69 69 68 68 68 69 67 65 61 58 57 57 57 59 64 69 73 78 79 80 84 90 95 97 97 97 97 96 96 94 92 91 90 88 85 84 84 84 84 83 81 79 77 77 77 77 76 74 70 68 66 62 59 60 60 57 58 59 59 58 57 56 56 56 54 53 51 51 52 53 53
87 86 86 87 85 83 81 81 79 78 77 76 74 73 73 72 72 71 70 69 70 71 71 69 67 64 59 57 55 52 54 60 66 71 76 78 78 83 88 92 94 95 97 98 97 96 95 92 91 91 89 87 86 86 86 86 85 84 82 80 79 78 78 78 75 72 70 67 63 62 63 61 60 59 59 59 59 58 57 57 56 55 53 53 53 54 55 54
90 90 89 89 89 88 86 84 82 82 81 80 78 77 76 75 75 74 73 72 73 74 73 71 69 65 61 56 53 50 52 58 63 69 75 77 78 82 87 89 91 95 97 98 98 98 95 92 91 91 90 88 87 87 87 87 87 85 83 82 81 80 80 79 76 74 71 68 65 64 64 63 61 60 60 60 59 58 57 57 57 56 55 54 55 56 57 57
93 93 93 92 92 92 91 88 86 85 86 84 82 81 80 79 78 76 76 75 76 77 76 73 70 67 63 56 52 51 52 55 60 67 72 75 78 82 85 87 90 94 97 99 99 98 95 91 90 91 90 89 88 88 87 87 87 86 84 82 81 80 79 78 76 74 72 69 67 66 65 62 61 61 61 61 60 59 58 58 57 57 56 56 57 58 59 59
95 95 96 95 95 95 95 93 91 89 89 88 86 85 84 83 80 78 78 78 79 79 77 74 71 69 64 57 53 51 50 52 58 64 70 73 77 81 84 85 88 93 96 99 99 98 94 91 90 91 90 87 87 88 88 88 90 88 84 81 80 79 78 77 76 75 73 71 69 66 64 62 62 62 62 62 61 60 59 58 59 59 58 58 59 60 61 61
Wind_Direction
249 250 252 253 254 254 255 257 259 261 265 267 268 268 266 265 269 276 283 290 298 307 317 325 330 335 342 347 353 2 14 24 28 27 26 27 27 28 30 28 28 30 31 33 34 34 34 34 33 33 34 36 35 19 243 233 225 214 210 212 216 222 225 235 245 245 239 235 238 240 241 243 254 265 265 263 262 261 262 262 260 261 263 267 271 272 273 273
248 249 250 251 253 254 255 255 256 258 261 264 266 268 269 267 266 268 274 281 287 293 300 309 317 324 330 335 341 347 356 10 20 24 23 24 25 25 28 28 26 27 28 30 33 32 32 33 33 32 33 35 36 30 329 228 222 217 215 211 209 216 223 237 248 247 238 230 234 243 244 246 256 263 261 258 258 259 260 260 260 262 269 274 275 274 274 274
250 249 249 249 250 252 253 254 255 256 257 260 264 266 268 268 268 266 267 272 278 283 288 295 303 311 318 323 329 333 339 350 5 16 18 20 23 23 24 27 25 24 26 28 30 32 32 32 33 32 32 34 37 36 29 231 216 215 216 212 205 204 212 235 248 247 236 224 225 244 250 248 246 248 248 242 233 226 217 222 236 244 266 273 270 268 270 272
253 252 251 250 250 250 250 252 253 254 255 256 259 263 265 267 268 267 266 266 270 276 281 285 290 297 306 312 317 322 326 332 345 0 10 13 18 20 21 24 24 22 22 25 27 30 31 32 33 33 31 32 37 40 39 36 208 209 210 209 204 195 196 221 233 224 201 187 187 222 247 229 208 205 196 182 168 159 140 114 102 106 104 111 269 280 283 288
256 255 254 253 252 251 250 250 250 251 252 253 255 257 261 264 266 267 267 265 264 267 273 278 282 286 293 301 306 310 315 319 326 339 355 4 9 14 16 19 22 21 20 21 23 27 31 32 33 34 33 31 33 40 45 47 59 172 197 197 193 184 183 201 199 180 159 152 156 166 190 185 182 182 181 171 150 128 108 93 85 74 57 31 4 342 324 310
258 258 257 256 255 254 253 252 251 251 250 251 251 253 256 258 262 265 266 266 264 263 265 271 275 278 282 287 294 299 304 309 313 321 335 348 358 4 9 14 17 19 18 19 20 22 28 32 32 33 34 31 31 37 46 53 63 93 167 174 173 168 171 181 171 148 132 135 139 143 161 175 181 180 175 160 134 114 102 98 96 91 14 339 327 313 305 300
261 260 259 259 258 257 256 255 253 253 252 251 251 250 251 253 256 260 263 265 264 263 261 264 267 271 274 277 283 289 294 299 302 307 317 329 340 348 358 5 11 14 14 16 17 18 22 29 32 33 34 33 30 32 42 52 59 70 105 149 156 151 150 147 130 114 108 110 109 113 143 168 171 160 143 124 109 100 100 105 109 126 199 273 283 284 284 286
262 262 261 261 260 259 258 257 256 255 254 254 253 251 251 250 251 254 257 261 262 263 262 261 262 264 267 269 273 278 284 289 293 297 303 311 322 330 341 354 3 7 9 13 14 14 18 24 30 33 33 33 32 30 36 48 56 60 72 112 134 127 119 109 99 96 85 73 76 81 121 183 163 133 116 108 108 119 138 146 141 150 204 246 266 274 279 283
262 262 262 262 261 261 260 259 258 257 255 255 254 254 253 251 251 251 252 255 258 260 261 260 260 260 262 263 265 270 276 281 284 289 293 297 305 313 322 335 351 358 0 7 10 11 14 18 24 31 33 33 33 30 30 40 53 59 66 78 92 95 91 89 87 89 80 54 46 48 254 249 203 131 131 142 162 187 205 208 202 232 240 248 260 273 282 285
261 261 261 261 262 262 261 261 260 259 257 256 255 255 254 253 252 251 251 251 253 255 257 258 257 258 258 259 259 263 269 273 276 281 285 288 293 300 308 318 331 343 348 357 5 6 8 13 17 25 33 33 33 34 29 30 41 52 58 64 72 76 76 79 84 86 93 240 266 260 251 254 234 184 178 181 184 190 195 202 252 295 240 228 215 223 292 304
260 260 260 260 260 260 261 261 260 260 259 257 256 255 255 254 253 252 251 250 251 251 253 254 255 255 256 256 256 258 262 265 268 273 278 281 285 290 297 305 313 324 332 342 356 359 1 7 12 17 27 32 33 37 33 26 28 39 50 55 60 65 65 65 70 91 151 237 248 249 248 246 236 219 211 209 209 196 175 151 124 179 200 190 152 127 105 84
259 259 259 259 259 259 259 259 259 259 259 258 257 256 255 254 254 253 252 251 250 250 251 251 252 254 255 254 254 255 256 258 262 266 271 275 278 281 287 296 301 307 315 324 339 348 350 357 6 9 16 28 32 36 37 27 19 25 41 48 51 55 58 58 57 51 241 244 249 254 257 253 245 240 230 218 210 189 160 144 147 164 169 147 124 113 105 98
259 259 258 258 258 258 258 258 258 258 257 257 257 257 256 254 254 253 253 252 250 250 250 250 251 252 253 254 254 254 253 253 257 261 266 271 273 275 279 286 292 296 300 307 318 331 337 344 357 1 5 18 27 34 39 32 18 15 33 46 50 50 52 56 60 61 66 237 252 254 254 251 236 214 165 156 159 155 144 143 145 142 132 118 108 104 101 96
259 259 259 258 258 258 257 257 257 256 256 256 256 256 255 255 253 252 252 252 251 250 250 250 250 251 252 253 254 255 253 251 253 258 262 265 269 271 273 278 284 287 290 296 303 311 321 327 339 349 353 5 19 28 38 38 23 13 25 44 52 51 50 54 65 74 79 90 115 149 125 92 78 70 75 97 121 132 140 145 136 120 113 108 105 104 99 96
260 259 259 258 258 257 257 257 256 256 255 255 254 254 254 254 253 252 251 252 251 251 250 250 250 250 251 251 252 254 254 252 252 255 257 260 263 265 267 271 274 279 283 289 292 295 303 311 320 331 339 348 5 19 32 41 31 17 18 38 52 53 51 53 64 79 88 95 101 99 90 84 81 76 76 92 118 130 142 144 124 108 106 105 106 103 99 96
260 260 259 259 258 258 257 257 256 256 255 254 253 253 253 253 252 251 250 250 251 251 250 250 249 249 250 249 249 252 253 253 251 252 253 255 257 259 262 264 265 270 277 283 284 284 289 296 303 310 320 329 343 3 19 35 36 25 18 29 47 54 55 55 59 71 86 95 97 92 89 89 89 88 90 100 115 124 131 130 115 105 105 104 102 98 94 93
261 260 260 259 259 258 257 257 256 256 255 254 253 252 251 252 252 251 250 249 249 249 249 250 249 249 249 248 247 249 251 251 250 250 251 251 252 254 255 257 258 262 269 276 276 276 278 283 289 294 301 309 321 337 356 22 30 28 26 26 38 47 54 58 60 65 75 86 91 91 91 91 90 88 89 92 100 108 112 110 103 98 100 101 97 89 86 89
261 260 260 260 259 259 258 257 257 256 255 253 252 251 250 251 251 250 250 249 248 248 247 248 249 249 249 247 246 248 248 248 249 250 250 250 251 253 253 254 255 256 261 268 269 270 271 274 279 280 285 293 301 311 322 351 12 17 22 24 32 37 41 49 57 66 71 76 82 85 87 89 88 85 82 82 89 97 100 98 94 93 92 90 85 81 84 89
261 260 260 260 259 259 259 258 257 256 255 254 252 251 250 250 250 249 249 249 248 247 246 245 246 247 248 247 245 247 247 246 248 249 249 250 251 252 253 254 255 254 256 261 263 264 266 269 271 271 273 279 286 293 300 309 329 344 351 356 11 25 28 27 30 55 81 85 79 77 78 81 81 80 78 78 83 88 92 92 89 88 86 81 74 74 77 79
261 260 260 259 259 258 258 258 258 257 256 254 253 251 251 250 249 249 248 248 247 246 245 244 244 245 247 247 245 246 247 245 246 247 248 248 249 250 251 252 253 253 253 256 259 259 263 266 264 263 264 267 274 281 285 291 295 299 305 307 305 324 353 351 346 337 71 120 107 85 74 73 74 76 80 87 90 92 93 91 90 88 86 85 81 76 74 70
261 260 259 259 258 258 257 257 257 257 256 255 253 251 250 250 249 248 248 248 247 245 246 244 243 244 245 245 245 245 245 245 245 247 247 247 246 247 249 249 250 251 250 252 255 257 260 262 258 256 259 260 265 272 275 279 281 280 278 275 274 276 282 290 287 284 293 330 66 82 75 80 97 100 91 101 108 107 105 103 100 95 88 89 90 83 76 69
262 261 260 259 258 257 257 256 256 256 256 255 254 252 250 250 249 249 248 248 247 244 244 245 243 243 244 242 243 244 245 245 244 245 246 246 246 245 246 246 247 248 249 250 253 256 257 258 255 252 255 258 259 263 268 271 273 273 270 265 262 257 258 268 271 273 281 304 339 24 40 60 135 149 140 150 135 126 129 127 122 117 104 97 92 79 69 61
263 262 260 259 258 257 256 256 256 255 255 254 254 253 251 249 249 248 247 248 249 245 242 244 244 243 243 241 241 242 244 244 243 243 244 245 245 245 245 245 245 246 248 249 251 252 253 254 253 250 252 256 256 258 262 266 267 267 266 264 259 252 247 251 257 265 272 280 293 313 332 339 323 191 178 208 201 169 155 146 143 146 151 156 158 146 9 14
267 265 262 260 258 257 256 256 255 255 255 254 253 252 251 250 249 248 246 247 249 248 242 241 243 244 243 241 240 240 242 243 243 242 242 244 245 245 245 244 244 244 245 247 247 249 251 252 252 250 251 255 256 256 258 260 261 261 261 260 260 255 248 245 247 254 261 268 275 280 282 289 295 295 283 260 254 240 212 189 187 203 214 223 237 252 275 302
272 270 267 263 261 258 256 255 255 255 255 254 253 252 251 250 248 247 246 245 248 249 245 241 241 243 243 242 239 239 241 242 242 241 240 242 244 244 244 244 244 244 243 244 245 247 250 252 251 249 250 252 254 255 255 256 256 257 257 255 257 258 254 251 247 246 251 259 266 267 270 274 281 287 292 290 279 263 248 238 239 246 246 247 253 262 273 286
277 276 273 270 267 263 258 255 255 254 254 254 254 253 251 250 248 247 246 244 245 248 247 242 240 241 243 242 240 239 241 242 242 240 239 241 242 242 242 242 243 244 243 243 243 245 249 251 250 249 248 249 252 253 254 254 254 254 252 250 252 256 256 255 253 249 247 251 259 261 263 267 271 276 285 289 284 276 270 266 261 263 263 259 259 265 274 282
280 280 278 276 273 270 265 259 255 254 254 253 253 253 252 251 249 247 245 243 243 245 247 244 241 240 241 242 241 239 240 242 242 240 239 240 241 241 241 241 242 243 243 243 243 244 248 251 250 248 247 246 249 251 251 251 251 251 247 244 247 250 254 258 259 256 249 247 254 258 260 263 265 266 271 278 281 281 283 280 273 268 267 264 265 269 275 280
281 280 280 279 278 277 273 266 259 256 256 254 252 252 252 252 250 248 246 243 242 243 245 244 243 240 240 241 241 239 239 242 242 240 239 238 239 240 240 240 241 242 242 241 241 242 245 248 247 245 244 243 244 246 248 248 248 249 246 241 243 245 250 257 260 259 255 252 251 252 255 259 263 265 265 268 273 278 283 283 281 275 269 265 265 269 275 279
280 279 279 279 279 279 278 273 266 261 259 256 253 251 250 251 250 249 247 244 242 242 242 243 242 241 240 239 240 239 238 240 242 240 239 239 239 239 239 240 240 241 241 240 240 240 244 247 246 245 244 242 242 244 246 247 247 248 246 242 242 242 244 251 258 260 260 258 254 249 249 251 255 262 264 265 268 271 275 277 278 278 277 274 271 271 275 278
279 278 278 278 278 278 278 277 275 269 264 259 256 252 249 249 248 248 247 245 242 242 241 241 241 240 239 239 238 238 238 238 240 240 240 239 239 238 238 239 239 240 240 240 240 241 244 247 248 247 244 242 243 244 246 247 248 249 248 245 244 242 242 245 253 258 260 260 256 250 248 248 247 253 257 262 265 267 269 268 269 272 274 277 278 278 278 278
278 277 276 275 276 276 276 278 279 276 271 264 259 255 251 248 247 247 246 245 243 243 242 241 240 239 239 238 237 237 238 238 239 239 239 239 239 238 238 238 239 240 240 241 243 243 245 248 250 249 246 243 244 245 245 246 249 250 249 247 247 244 241 242 248 254 256 258 256 250 248 250 247 249 252 255 258 262 265 265 265 266 268 270 273 277 278 278
277 275 274 273 273 273 275 277 278 277 276 271 264 258 254 250 248 248 248 245 244 244 243 242 240 239 238 237 237 236 237 238 238 238 238 238 239 238 238 238 238 239 240 242 244 246 247 249 250 250 247 245 246 246 245 246 249 251 249 248 247 245 242 240 244 246 247 253 255 250 247 250 249 249 252 252 255 261 262 263 264 265 265 265 266 269 272 275
277 275 273 271 270 271 273 275 275 276 276 275 270 264 259 254 252 255 253 247 244 244 244 243 241 239 237 236 236 235 235 236 237 237 237 237 238 238 237 237 237 237 238 239 242 243 244 246 247 248 248 247 247 248 246 245 247 249 248 245 244 244 242 239 239 240 240 246 252 250 248 252 251 248 251 255 257 261 263 263 264 264 264 265 265 266 268 271
276 275 274 272 270 270 270 271 272 273 274 275 274 270 265 262 261 262 258 249 245 244 243 243 241 239 236 235 235 234 234 235 236 236 236 236 237 237 237 238 237 237 237 237 239 240 241 243 244 245 246 245 245 247 246 243 243 244 245 242 240 240 241 238 236 237 237 241 248 251 250 254 254 250 252 257 256 259 263 265 266 266 265 265 266 267 268 269
276 274 273 272 270 269 269 269 270 271 272 274 275 273 271 268 266 264 258 251 247 244 242 241 241 239 237 235 234 233 233 233 233 234 235 235 236 236 237 237 237 237 237 237 238 240 242 243 244 244 242 241 240 241 241 241 240 242 244 243 241 241 241 239 236 237 238 240 246 250 250 254 258 256 255 256 256 257 261 265 267 268 269 269 269 270 271 272
275 273 272 271 271 269 267 267 268 269 270 272 274 275 274 270 267 265 260 254 250 246 242 240 240 239 238 235 234 233 232 232 232 232 233 234 234 235 235 236 236 236 237 237 237 239 241 242 244 244 243 242 241 239 239 240 238 239 242 242 241 239 239 237 235 236 238 239 243 247 247 251 258 259 257 257 258 257 259 263 266 267 268 270 271 273 275 277
274 273 271 270 270 268 267 266 266 267 268 269 272 274 273 270 267 265 261 256 252 248 245 241 239 239 238 236 234 233 232 232 231 231 232 232 233 233 234 235 235 235 235 236 237 237 238 239 240 242 242 241 241 240 239 240 240 239 240 239 239 239 239 238 236 236 238 239 240 243 244 246 253 257 257 256 258 258 259 262 266 268 269 270 272 273 275 277
274 272 270 269 268 267 266 265 265 265 266 267 270 272 271 269 266 263 261 258 254 251 248 243 239 238 238 237 235 233 231 231 231 230 230 231 231 232 233 234 235 235 235 235 236 236 237 237 239 241 240 239 240 239 239 241 242 242 241 240 242 244 243 241 239 238 239 239 238 240 242 242 247 253 256 256 257 259 260 261 264 268 270 271 272 274 275 275
273 271 269 268 266 265 265 264 264 264 265 266 267 268 268 266 264 263 262 260 257 254 251 246 241 237 236 236 235 233 231 231 231 229 229 229 229 230 232 232 233 234 234 234 234 234 236 237 239 241 241 240 240 240 240 242 244 244 242 243 246 247 246 245 244 241 241 240 239 239 241 242 244 249 253 255 256 258 260 261 261 264 267 269 271 273 275 275
273 270 268 266 265 264 263 263 263 263 263 264 264 265 265 263 263 263 263 262 259 257 253 249 244 238 235 235 235 234 231 230 230 229 228 228 227 228 230 231 232 233 234 234 234 233 234 234 237 240 241 242 243 243 243 243 245 244 243 243 245 246 246 245 244 242 242 242 241 240 241 242 244 247 250 252 254 255 257 258 259 261 265 267 269 271 273 275
272 269 266 264 263 262 261 261 261 261 261 261 262 263 263 261 260 261 262 262 261 259 256 252 247 240 236 234 234 234 232 230 230 229 228 227 227 227 228 229 230 231 232 233 234 234 234 234 235 238 240 242 244 245 243 241 242 242 240 240 241 242 242 242 243 242 240 240 239 238 237 238 241 244 245 247 249 251 252 254 257 260 262 265 267 268 270 272
271 268 264 263 261 260 259 259 258 259 259 259 259 260 260 259 258 259 261 261 262 260 258 254 248 241 236 234 233 234 232 230 229 228 227 227 226 227 228 228 228 229 231 232 233 234 234 233 234 236 239 240 242 243 241 240 241 242 240 239 241 242 244 245 245 243 241 241 239 238 237 237 239 243 244 245 247 249 250 253 255 258 261 263 265 266 268 270
270 266 262 260 259 258 257 256 256 256 256 256 257 257 257 257 257 258 259 260 260 259 257 254 249 243 238 235 233 234 233 231 230 228 227 226 226 226 227 227 228 229 230 231 231 232 233 233 233 235 237 238 239 240 240 240 241 242 242 242 244 246 248 248 248 245 245 246 244 242 241 240 241 244 246 247 249 250 251 253 254 257 259 261 263 265 267 269
267 264 261 258 257 256 255 254 254 254 254 254 255 255 254 254 254 255 256 257 257 258 257 254 250 244 240 236 233 233 233 232 230 228 227 226 225 226 227 227 227 228 229 229 230 231 232 233 233 234 235 236 237 239 240 241 243 245 245 245 246 248 248 248 248 248 248 249 248 248 246 244 244 247 249 249 250 250 251 251 253 254 256 259 261 263 266 268
264 261 259 257 255 255 254 252 252 252 252 253 253 252 252 252 252 253 254 255 257 258 257 255 251 246 242 239 235 233 232 232 231 229 227 225 225 225 227 227 227 227 227 228 229 230 231 231 231 232 234 236 238 240 243 245 246 247 247 247 247 248 248 248 247 247 248 248 248 248 247 243 243 245 247 248 248 249 249 250 251 253 255 257 259 262 265 268
263 261 259 256 254 254 254 253 253 253 253 253 253 252 252 252 252 252 253 254 255 256 257 256 253 249 245 241 237 234 232 232 232 230 227 225 224 224 226 227 227 226 226 226 228 229 230 230 230 231 232 234 236 238 240 242 243 244 244 244 244 245 245 245 245 245 245 246 246 245 244 241 241 242 245 247 248 249 250 250 251 253 255 257 260 262 265 267
264 262 261 258 255 254 255 254 254 254 254 254 254 253 252 252 251 251 252 253 254 255 256 256 254 251 246 242 238 235 233 232 231 231 229 226 224 224 226 227 226 225 225 226 227 228 229 230 230 230 231 232 234 235 236 237 238 240 240 240 240 241 242 243 244 243 243 244 244 244 243 243 242 243 246 248 250 251 251 252 253 254 256 259 261 263 265 267
263 262 261 259 256 254 254 255 254 254 254 254 254 253 253 252 251 250 251 252 254 254 255 255 254 251 248 243 239 235 233 232 231 231 230 226 223 224 226 226 226 225 225 225 226 227 228 229 230 230 230 231 233 234 235 237 238 238 239 239 239 240 242 244 244 244 243 244 244 244 245 245 245 246 247 249 252 253 254 255 256 258 260 261 262 263 264 266
261 260 260 259 257 254 253 253 254 254 254 254 253 253 252 252 251 251 251 251 252 253 253 253 253 251 248 244 239 235 233 231 230 230 230 227 223 223 226 226 225 224 224 224 225 226 226 227 228 229 229 229 231 233 235 237 238 239 239 239 240 241 242 244 245 245 244 245 244 244 246 247 247 248 250 251 253 254 256 257 259 261 262 262 263 263 264 266
258 257 256 256 255 254 251 251 251 252 252 252 252 252 251 250 250 250 250 250 250 251 251 252 251 250 247 244 238 233 231 230 229 229 229 227 223 223 224 225 225 224 224 224 225 225 225 225 226 228 228 228 229 231 234 236 238 239 239 240 241 242 243 245 246 246 247 246 246 246 247 248 249 250 251 252 254 255 256 258 260 261 262 263 263 264 266 266
255 254 253 252 252 251 249 248 248 248 249 249 249 249 249 248 247 247 247 247 247 248 249 249 249 248 246 242 236 231 229 228 228 229 229 226 224 223 223 224 224 224 223 223 224 225 225 224 226 227 228 228 229 231 232 235 237 238 239 240 242 243 245 247 248 249 250 249 249 248 249 250 250 251 252 253 255 256 257 258 260 261 262 263 264 265 265 266
253 251 250 249 248 248 247 246 245 244 244 245 245 245 245 245 244 243 243 244 244 245 246 246 246 246 245 241 235 228 226 226 227 229 228 226 224 224 223 223 224 224 223 223 223 224 224 224 225 226 227 228 229 231 232 233 235 236 238 240 242 245 246 248 249 250 251 251 251 251 252 252 252 252 254 256 257 258 259 260 261 262 263 264 264 264 265 267
Height
10991 10992 10992 10992 10993 10993 10993 10994 10994 10994 10994 10994 10994 10994 10994 10995 10995 10995 10995 10995 10995 10995 10994 10994 10993 10993 10992 10991 10991 10990 10990 10989 10988 10987 10986 10985 10984 10982 10981 10980 10978 10976 10975 10973 10971 10969 10968 10967 10965 10963 10961 10958 10957 10956 10956 10956 10957 10957 10958 10959 10960 10960 10961 10962 10964 10965 10966 10967 10967 10968 10968 10969 10969 10970 10971 10972 10973 10974 10974 10974 10975 10975 10975 10975 10976 10976 10976 10976
10989 10990 10990 10990 10991 10991 10991 10992 10992 10992 10992 10992 10992 10993 10993 10993 10994 10994 10994 10994 10994 10994 10994 10994 10993 10993 10992 10991 10991 10990 10990 10990 10989 10988 10987 10986 10985 10984 10982 10981 10979 10978 10976 10974 10972 10971 10969 10968 10966 10964 10962 10960 10958 10956 10955 10956 10957 10957 10958 10959 10960 10960 10961 10962 10963 10964 10965 10966 10967 10967 10968 10968 10968 10969 10970 10971 10972 10973 10973 10974 10974 10974 10974 10974 10974 10974 10974 10974
10987 10988 10988 10988 10988 10989 10989 10989 10990 10990 10991 10991 10991 10991 10991 10992 10992 10993 10993 10994 10993 10993 10993 10994 10993 10993 10992 10991 10991 10990 10989 10990 10990 10989 10988 10987 10986 10985 10984 10982 10981 10979 10978 10976 10974 10973 10971 10969 10968 10966 10964 10962 10959 10957 10956 10956 10956 10957 10958 10959 10960 10961 10961 10962 10963 10964 10964 10965 10965 10967 10967 10967 10968 10969 10970 10970 10971 10972 10973 10973 10973 10973 10974 10974 10974 10974 10974 10974
10985 10985 10985 10986 10986 10986 10987 10987 10987 10988 10989 10989 10989 10990 10990 10990 10990 10991 10992 10993 10993 10993 10992 10993 10993 10992 10992 10991 10990 10990 10989 10989 10989 10989 10988 10987 10986 10986 10985 10984 10982 10981 10979 10978 10976 10975 10973 10971 10970 10968 10966 10964 10961 10959 10957 10956 10956 10957 10958 10959 10960 10960 10960 10962 10963 10964 10964 10964 10965 10966 10967 10967 10968 10969 10970 10970 10971 10972 10972 10973 10973 10973 10973 10974 10974 10973 10973 10973
10981 10982 10982 10983 10983 10984 10984 10984 10985 10985 10986 10987 10987 10988 10988 10988 10988 10989 10989 10991 10991 10992 10991 10991 10992 10992 10991 10991 10990 10989 10988 10988 10988 10989 10989 10988 10987 10986 10985 10985 10984 10982 10980 10979 10978 10976 10975 10973 10972 10970 10969 10967 10964 10961 10959 10958 10957 10958 10958 10959 10961 10960 10960 10962 10964 10964 10964 10964 10965 10966 10967 10968 10969 10969 10970 10971 10971 10971 10972 10972 10973 10973 10973 10973 10973 10973 10973 10974
10978 10978 10979 10979 10980 10980 10981 10981 10982 10982 10983 10984 10984 10985 10986 10986 10986 10987 10987 10988 10989 10990 10990 10990 10990 10991 10991 10990 10989 10988 10988 10987 10987 10988 10989 10988 10987 10987 10986 10985 10985 10983 10982 10980 10979 10978 10976 10975 10973 10972 10970 10969 10967 10964 10962 10960 10960 10960 10960 10961 10961 10960 10960 10962 10963 10964 10964 10964 10965 10967 10968 10969 10970 10970 10970 10970 10971 10971 10972 10972 10973 10973 10973 10973 10973 10973 10974 10974
10974 10974 10975 10975 10976 10977 10977 10978 10979 10979 10980 10981 10981 10982 10983 10984 10984 10985 10985 10985 10986 10987 10988 10989 10989 10989 10989 10989 10989 10988 10987 10987 10986 10987 10988 10988 10988 10987 10986 10986 10985 10984 10983 10981 10980 10978 10977 10976 10974 10973 10972 10970 10969 10967 10964 10962 10961 10962 10962 10962 10962 10961 10961 10961 10962 10963 10964 10964 10965 10967 10969 10970 10971 10970 10970 10970 10970 10971 10972 10972 10973 10974 10974 10974 10974 10974 10974 10974
10970 10970 10971 10972 10972 10973 10973 10974 10975 10976 10977 10977 10978 10979 10980 10981 10982 10982 10983 10983 10984 10984 10985 10986 10987 10987 10987 10987 10987 10987 10986 10986 10985 10985 10986 10987 10987 10987 10986 10986 10986 10985 10984 10983 10981 10979 10978 10977 10976 10974 10973 10972 10970 10969 10967 10964 10963 10963 10964 10964 10963 10961 10961 10961 10961 10963 10964 10964 10965 10966 10968 10970 10970 10969 10969 10969 10970 10971 10972 10972 10973 10973 10973 10974 10974 10974 10973 10973
10965 10966 10967 10967 10968 10969 10969 10970 10971 10972 10973 10974 10975 10976 10977 10978 10979 10980 10980 10980 10981 10981 10982 10983 10984 10984 10985 10985 10986 10985 10985 10985 10984 10984 10985 10985 10986 10986 10986 10986 10986 10985 10984 10984 10982 10980 10979 10978 10977 10975 10974 10973 10972 10970 10969 10967 10966 10966 10966 10965 10963 10961 10960 10961 10962 10963 10964 10964 10965 10966 10968 10969 10969 10969 10969 10970 10970 10971 10972 10972 10972 10972 10973 10973 10973 10973 10973 10973
10960 10961 10962 10963 10964 10964 10965 10966 10967 10968 10969 10970 10971 10972 10973 10974 10975 10976 10977 10977 10977 10978 10979 10979 10980 10981 10982 10982 10983 10984 10984 10983 10983 10983 10983 10984 10985 10986 10986 10986 10986 10986 10985 10984 10983 10982 10980 10979 10977 10976 10975 10975 10974 10972 10971 10970 10969 10968 10968 10966 10963 10960 10961 10962 10963 10963 10964 10965 10966 10967 10968 10969 10969 10969 10970 10970 10970 10970 10971 10971 10971 10971 10972 10972 10972 10972 10972 10972
10955 10955 10956 10957 10958 10959 10960 10962 10963 10964 10965 10966 10967 10969 10969 10969 10971 10972 10973 10973 10974 10974 10975 10975 10976 10978 10979 10979 10980 10982 10981 10980 10981 10982 10982 10982 10983 10984 10985 10985 10985 10985 10985 10984 10984 10983 10981 10980 10978 10977 10976 10976 10975 10974 10972 10971 10971 10970 10969 10966 10962 10960 10961 10963 10964 10964 10965 10966 10966 10967 10968 10970 10970 10969 10969 10969 10969 10969 10970 10970 10971 10971 10972 10972 10972 10972 10972 10972
10949 10950 10950 10951 10953 10954 10955 10956 10957 10959 10961 10962 10963 10965 10965 10965 10967 10968 10968 10969 10969 10970 10971 10971 10973 10974 10975 10975 10978 10979 10978 10978 10979 10980 10980 10980 10981 10982 10983 10984 10984 10985 10984 10984 10984 10983 10982 10981 10979 10978 10977 10976 10976 10975 10973 10972 10972 10971 10969 10965 10961 10960 10963 10964 10965 10965 10966 10966 10967 10967 10968 10969 10969 10968 10968 10968 10968 10968 10969 10970 10971 10972 10972 10972 10972 10971 10971 10972
10942 10943 10944 10945 10946 10947 10949 10950 10951 10953 10956 10958 10959 10960 10960 10961 10962 10963 10963 10964 10965 10966 10967 10968 10969 10971 10971 10972 10975 10975 10974 10975 10977 10978 10979 10979 10979 10981 10982 10983 10983 10983 10983 10983 10983 10983 10982 10981 10980 10979 10978 10977 10976 10975 10974 10973 10973 10972 10969 10965 10962 10962 10964 10966 10967 10967 10967 10967 10967 10968 10968 10967 10967 10967 10967 10967 10968 10969 10970 10971 10972 10973 10973 10972 10972 10972 10972 10972
10935 10936 10937 10938 10939 10940 10942 10943 10944 10947 10950 10952 10955 10956 10955 10956 10957 10958 10958 10959 10960 10961 10963 10964 10965 10967 10967 10969 10972 10970 10970 10973 10975 10976 10977 10977 10977 10978 10980 10982 10982 10982 10982 10982 10983 10983 10982 10981 10981 10980 10979 10978 10977 10976 10975 10974 10974 10974 10971 10967 10965 10965 10967 10968 10969 10969 10969 10969 10969 10969 10968 10967 10967 10967 10967 10968 10968 10969 10971 10972 10973 10973 10974 10973 10973 10972 10973 10973
10927 10928 10929 10930 10931 10933 10934 10935 10937 10940 10943 10946 10949 10950 10950 10950 10952 10953 10953 10954 10955 10957 10959 10960 10961 10962 10962 10966 10969 10966 10966 10970 10973 10974 10974 10974 10975 10975 10978 10979 10980 10980 10981 10981 10981 10982 10982 10981 10981 10980 10979 10978 10977 10976 10975 10975 10975 10975 10973 10970 10968 10968 10970 10971 10972 10972 10971 10971 10971 10970 10969 10968 10968 10969 10969 10969 10970 10970 10971 10972 10973 10974 10974 10974 10974 10974 10973 10974
10919 10919 10920 10922 10923 10925 10926 10927 10929 10932 10936 10939 10942 10944 10944 10944 10945 10947 10948 10948 10950 10952 10954 10955 10956 10957 10956 10961 10964 10961 10962 10967 10970 10971 10970 10971 10971 10972 10974 10976 10978 10979 10979 10979 10979 10980 10981 10980 10980 10980 10979 10978 10978 10977 10976 10975 10975 10975 10975 10973 10971 10972 10973 10974 10974 10974 10973 10973 10972 10971 10970 10970 10970 10970 10971 10971 10971 10971 10972 10973 10974 10974 10975 10975 10975 10975 10975 10975
10910 10911 10911 10913 10914 10916 10917 10918 10920 10923 10928 10932 10935 10937 10937 10937 10938 10940 10941 10943 10945 10947 10949 10950 10951 10951 10951 10955 10958 10956 10958 10963 10965 10966 10966 10967 10967 10968 10971 10972 10975 10977 10977 10977 10977 10978 10979 10979 10979 10979 10979 10978 10977 10978 10977 10976 10976 10976 10976 10975 10975 10975 10975 10976 10976 10976 10975 10975 10974 10973 10972 10971 10972 10972 10973 10973 10972 10972 10972 10973 10974 10975 10975 10976 10976 10976 10976 10976
10902 10902 10903 10904 10905 10907 10908 10909 10910 10913 10918 10923 10926 10929 10930 10929 10930 10933 10934 10936 10938 10941 10944 10944 10945 10946 10946 10950 10953 10951 10954 10958 10961 10961 10961 10962 10964 10966 10967 10969 10972 10974 10976 10975 10974 10976 10977 10978 10978 10978 10978 10977 10977 10977 10977 10976 10976 10976 10977 10977 10977 10976 10976 10977 10977 10977 10977 10977 10976 10975 10973 10973 10973 10974 10975 10974 10974 10973 10973 10973 10974 10975 10975 10976 10976 10976 10976 10976
10892 10893 10894 10895 10896 10898 10899 10899 10900 10903 10907 10913 10918 10920 10921 10922 10922 10925 10927 10928 10931 10934 10936 10938 10940 10941 10940 10943 10947 10947 10949 10954 10955 10955 10957 10959 10961 10962 10964 10967 10969 10972 10973 10972 10971 10973 10975 10976 10975 10976 10977 10976 10976 10976 10976 10976 10976 10976 10976 10977 10977 10977 10976 10977 10977 10977 10978 10978 10977 10976 10975 10974 10974 10975 10976 10975 10975 10974 10974 10974 10974 10975 10976 10976 10977 10977 10977 10977
10883 10883 10884 10885 10886 10888 10889 10889 10890 10893 10896 10902 10907 10910 10912 10913 10915 10917 10918 10920 10923 10926 10928 10931 10934 10934 10934 10937 10942 10943 10945 10949 10950 10950 10952 10954 10956 10958 10960 10963 10965 10968 10970 10968 10968 10970 10973 10973 10972 10974 10975 10975 10975 10975 10975 10976 10976 10976 10976 10976 10977 10977 10976 10976 10977 10977 10977 10977 10977 10976 10976 10976 10976 10976 10977 10976 10976 10975 10975 10974 10974 10975 10976 10977 10977 10978 10978 10978
10873 10873 10874 10874 10875 10877 10879 10879 10879 10882 10885 10890 10896 10900 10902 10903 10906 10908 10910 10911 10913 10918 10920 10923 10928 10927 10927 10931 10936 10938 10940 10944 10945 10945 10946 10949 10951 10953 10955 10959 10961 10963 10964 10964 10965 10968 10970 10968 10968 10971 10973 10974 10975 10974 10974 10974 10975 10975 10975 10975 10976 10976 10976 10976 10976 10977 10976 10976 10976 10976 10976 10976 10976 10977 10977 10977 10977 10977 10976 10976 10975 10976 10977 10977 10978 10979 10979 10979
10864 10864 10864 10864 10865 10866 10869 10869 10869 10871 10874 10878 10883 10889 10892 10894 10896 10899 10902 10901 10900 10909 10913 10914 10921 10919 10917 10924 10930 10934 10937 10938 10938 10938 10941 10943 10946 10948 10950 10953 10957 10958 10959 10961 10963 10966 10966 10963 10964 10969 10970 10972 10973 10973 10973 10973 10973 10974 10974 10975 10975 10975 10976 10976 10976 10976 10975 10975 10975 10975 10975 10975 10976 10977 10978 10978 10978 10978 10977 10977 10977 10977 10978 10978 10979 10979 10979 10979
10856 10856 10855 10856 10855 10857 10859 10859 10859 10861 10863 10866 10870 10875 10881 10884 10887 10889 10894 10892 10886 10895 10905 10907 10911 10910 10908 10917 10925 10929 10931 10930 10931 10933 10936 10938 10940 10943 10945 10948 10951 10952 10954 10958 10960 10961 10960 10957 10960 10966 10968 10969 10971 10971 10972 10971 10971 10972 10972 10973 10973 10974 10975 10975 10975 10975 10974 10974 10974 10974 10974 10975 10975 10976 10977 10978 10978 10978 10978 10978 10978 10978 10979 10979 10979 10979 10979 10979
10848 10847 10847 10847 10846 10847 10849 10849 10850 10851 10852 10855 10857 10862 10867 10872 10877 10879 10885 10885 10875 10879 10895 10899 10900 10900 10901 10910 10919 10923 10922 10921 10924 10928 10931 10933 10934 10937 10940 10943 10945 10947 10950 10953 10955 10956 10953 10952 10957 10963 10965 10966 10967 10969 10970 10970 10969 10969 10970 10971 10971 10972 10973 10973 10974 10974 10973 10973 10973 10974 10974 10974 10974 10975 10976 10977 10977 10978 10978 10978 10978 10979 10979 10979 10979 10979 10979 10978
10840 10839 10838 10838 10838 10837 10839 10841 10841 10842 10843 10844 10846 10849 10854 10858 10864 10869 10874 10878 10868 10862 10877 10890 10891 10891 10893 10901 10912 10916 10915 10915 10916 10919 10925 10927 10927 10931 10934 10937 10940 10942 10945 10947 10949 10951 10948 10947 10954 10960 10962 10963 10964 10965 10966 10967 10967 10967 10967 10968 10968 10970 10971 10971 10972 10972 10972 10972 10972 10972 10973 10973 10973 10974 10974 10975 10976 10977 10977 10977 10977 10978 10979 10979 10979 10979 10979 10978
10832 10831 10830 10830 10829 10828 10830 10832 10832 10834 10833 10834 10837 10838 10841 10845 10851 10857 10861 10867 10862 10848 10857 10876 10883 10883 10884 10892 10903 10909 10909 10907 10905 10911 10920 10922 10920 10924 10928 10931 10935 10936 10939 10942 10945 10946 10942 10942 10950 10956 10958 10959 10960 10961 10962 10963 10965 10964 10964 10965 10966 10967 10968 10968 10969 10970 10971 10971 10971 10971 10971 10972 10972 10973 10973 10973 10974 10975 10975 10976 10976 10977 10978 10978 10979 10979 10978 10977
10824 10823 10821 10821 10821 10819 10819 10822 10824 10826 10824 10825 10827 10828 10830 10834 10839 10845 10848 10855 10852 10837 10841 10860 10870 10874 10878 10882 10892 10901 10902 10895 10895 10906 10914 10914 10913 10917 10922 10926 10929 10930 10933 10937 10941 10942 10937 10937 10945 10951 10952 10955 10957 10957 10956 10958 10960 10959 10960 10963 10965 10965 10966 10966 10967 10968 10969 10969 10969 10969 10969 10970 10970 10971 10972 10972 10972 10973 10974 10974 10975 10976 10976 10977 10977 10977 10977 10976
10817 10815 10813 10812 10813 10811 10809 10811 10816 10818 10815 10815 10817 10819 10821 10823 10828 10833 10835 10842 10839 10826 10829 10844 10855 10865 10871 10873 10880 10890 10892 10886 10888 10899 10904 10904 10907 10911 10916 10920 10921 10922 10925 10931 10936 10936 10931 10931 10938 10944 10946 10950 10952 10951 10950 10953 10955 10954 10957 10962 10963 10964 10965 10964 10964 10965 10967 10967 10967 10967 10967 10968 10968 10969 10970 10971 10971 10971 10972 10973 10973 10974 10975 10975 10975 10975 10975 10975
10809 10808 10806 10804 10804 10804 10800 10801 10807 10809 10807 10805 10807 10810 10811 10813 10818 10820 10824 10829 10823 10812 10818 10831 10842 10853 10860 10864 10869 10877 10881 10878 10879 10888 10893 10897 10901 10905 10910 10912 10913 10915 10918 10925 10930 10929 10925 10925 10931 10937 10942 10946 10947 10945 10946 10949 10949 10949 10954 10959 10960 10962 10963 10963 10962 10962 10964 10964 10963 10964 10965 10965 10966 10966 10967 10968 10969 10970 10971 10971 10971 10972 10972 10972 10973 10973 10974 10974
10800 10800 10799 10796 10796 10796 10792 10793 10798 10799 10797 10797 10798 10799 10801 10804 10807 10809 10814 10814 10805 10800 10809 10820 10828 10840 10848 10853 10858 10864 10868 10867 10869 10878 10885 10889 10893 10898 10901 10903 10906 10908 10913 10919 10923 10923 10921 10920 10925 10933 10938 10940 10940 10940 10943 10944 10943 10945 10951 10955 10957 10960 10961 10962 10961 10960 10962 10961 10959 10962 10963 10963 10964 10964 10965 10966 10967 10967 10969 10969 10970 10970 10970 10970 10970 10971 10971 10972
10792 10792 10792 10789 10787 10787 10785 10786 10790 10788 10787 10788 10789 10789 10791 10794 10796 10801 10802 10795 10789 10793 10802 10809 10817 10828 10836 10840 10846 10853 10855 10856 10861 10869 10876 10879 10883 10889 10894 10897 10900 10903 10908 10914 10918 10918 10917 10917 10921 10928 10932 10934 10934 10936 10939 10940 10938 10941 10948 10951 10953 10956 10958 10960 10960 10960 10961 10956 10954 10959 10962 10961 10962 10962 10963 10964 10964 10965 10966 10967 10967 10967 10967 10968 10968 10968 10968 10969
10783 10782 10782 10782 10780 10777 10777 10780 10781 10779 10776 10777 10779 10780 10781 10784 10789 10790 10785 10778 10781 10789 10794 10799 10807 10816 10824 10827 10833 10841 10844 10846 10853 10859 10865 10869 10873 10880 10885 10889 10893 10897 10902 10908 10911 10912 10913 10914 10916 10921 10926 10929 10929 10931 10934 10935 10934 10937 10943 10946 10949 10952 10954 10957 10958 10958 10958 10952 10950 10957 10960 10959 10959 10960 10961 10961 10962 10962 10963 10964 10964 10964 10965 10965 10965 10965 10966 10966
10774 10773 10772 10773 10772 10769 10770 10771 10771 10770 10768 10766 10769 10772 10773 10777 10781 10778 10770 10768 10775 10781 10785 10791 10798 10804 10811 10814 10819 10828 10832 10835 10841 10847 10853 10858 10864 10870 10874 10879 10884 10889 10894 10899 10900 10903 10906 10906 10908 10914 10920 10923 10925 10926 10929 10931 10931 10932 10936 10940 10943 10946 10949 10952 10953 10954 10954 10949 10947 10953 10958 10956 10955 10957 10958 10959 10960 10959 10959 10960 10960 10961 10961 10961 10962 10962 10963 10963
10764 10763 10762 10762 10763 10762 10761 10761 10761 10761 10760 10758 10760 10763 10766 10770 10770 10764 10759 10762 10767 10772 10776 10783 10787 10791 10797 10800 10805 10813 10819 10824 10830 10835 10841 10848 10854 10860 10865 10871 10877 10882 10886 10889 10892 10896 10898 10899 10903 10909 10913 10916 10919 10920 10922 10924 10924 10924 10927 10932 10936 10940 10943 10946 10947 10947 10948 10946 10945 10951 10956 10953 10950 10955 10957 10956 10957 10956 10955 10956 10956 10956 10957 10958 10958 10959 10959 10960
10754 10754 10752 10751 10754 10755 10752 10751 10750 10751 10752 10751 10750 10755 10760 10761 10757 10752 10751 10754 10757 10761 10767 10772 10775 10779 10783 10788 10792 10799 10806 10812 10817 10823 10829 10838 10845 10851 10856 10862 10868 10874 10877 10881 10887 10890 10892 10895 10898 10900 10904 10907 10910 10912 10912 10913 10916 10918 10919 10925 10933 10937 10937 10938 10940 10942 10943 10944 10946 10950 10953 10949 10946 10951 10954 10952 10953 10954 10953 10952 10951 10952 10953 10953 10954 10955 10955 10956
10744 10743 10743 10742 10743 10744 10743 10741 10740 10741 10742 10742 10743 10748 10750 10748 10745 10743 10743 10744 10746 10751 10757 10762 10765 10769 10772 10776 10781 10788 10793 10797 10803 10811 10818 10827 10835 10840 10845 10851 10857 10864 10869 10874 10879 10882 10886 10891 10889 10889 10896 10899 10901 10903 10902 10904 10910 10911 10913 10921 10928 10928 10927 10929 10934 10937 10938 10942 10945 10947 10950 10947 10944 10947 10949 10948 10949 10950 10950 10949 10948 10948 10949 10949 10950 10950 10951 10951
10734 10732 10732 10733 10733 10732 10732 10732 10730 10731 10732 10733 10737 10740 10739 10737 10735 10733 10733 10735 10738 10742 10748 10752 10756 10759 10761 10765 10771 10776 10780 10783 10791 10800 10807 10815 10824 10830 10836 10841 10847 10854 10860 10863 10868 10873 10879 10881 10878 10880 10888 10890 10891 10893 10894 10896 10902 10905 10909 10917 10918 10915 10918 10924 10929 10933 10935 10939 10943 10944 10945 10945 10943 10943 10943 10944 10945 10945 10947 10947 10945 10944 10945 10945 10946 10946 10947 10947
10723 10720 10720 10723 10723 10721 10721 10721 10720 10721 10722 10725 10729 10730 10729 10727 10724 10722 10723 10726 10729 10734 10738 10742 10746 10749 10750 10755 10759 10763 10767 10770 10777 10787 10795 10805 10815 10821 10826 10831 10836 10843 10849 10852 10857 10864 10869 10871 10870 10871 10877 10879 10879 10882 10887 10891 10897 10902 10906 10909 10907 10908 10914 10920 10924 10929 10931 10935 10938 10939 10940 10942 10943 10940 10938 10940 10942 10942 10944 10945 10943 10941 10940 10941 10942 10942 10942 10943
10712 10709 10709 10710 10711 10711 10711 10710 10710 10711 10713 10717 10720 10719 10718 10715 10712 10712 10715 10718 10722 10726 10729 10732 10736 10738 10741 10744 10746 10750 10755 10758 10764 10774 10784 10794 10804 10809 10813 10819 10825 10831 10836 10840 10847 10854 10859 10863 10863 10863 10866 10868 10867 10873 10884 10890 10894 10898 10900 10900 10901 10904 10911 10915 10919 10924 10927 10930 10933 10935 10937 10940 10941 10938 10935 10936 10938 10939 10940 10942 10941 10939 10937 10938 10938 10938 10938 10938
10701 10697 10696 10698 10698 10699 10700 10699 10699 10701 10703 10707 10708 10708 10708 10705 10702 10703 10706 10710 10713 10716 10720 10723 10725 10729 10731 10732 10734 10737 10743 10747 10753 10762 10772 10783 10792 10797 10801 10808 10814 10819 10823 10829 10837 10842 10847 10854 10857 10856 10856 10857 10861 10873 10886 10889 10887 10889 10892 10893 10896 10899 10904 10908 10912 10917 10922 10925 10928 10931 10934 10936 10936 10933 10932 10933 10934 10936 10936 10937 10937 10936 10934 10934 10935 10934 10934 10934
10688 10685 10684 10685 10686 10687 10688 10688 10689 10689 10692 10696 10697 10696 10696 10695 10693 10694 10696 10701 10705 10708 10712 10714 10715 10719 10720 10721 10722 10724 10730 10737 10743 10751 10761 10772 10781 10785 10789 10795 10802 10806 10811 10819 10828 10834 10840 10848 10851 10847 10846 10853 10862 10871 10878 10877 10873 10877 10882 10886 10889 10891 10895 10899 10904 10911 10915 10918 10922 10924 10928 10930 10929 10928 10928 10929 10930 10931 10932 10932 10933 10933 10931 10930 10930 10930 10930 10930
10674 10672 10671 10672 10673 10673 10676 10677 10677 10678 10681 10685 10685 10684 10685 10686 10685 10685 10687 10693 10696 10698 10702 10704 10706 10708 10709 10710 10711 10713 10720 10729 10734 10742 10751 10761 10770 10774 10776 10783 10791 10795 10801 10811 10821 10827 10831 10837 10839 10838 10841 10852 10858 10858 10862 10863 10862 10865 10872 10879 10881 10883 10888 10894 10900 10906 10908 10911 10915 10917 10921 10924 10924 10922 10923 10925 10926 10927 10928 10928 10930 10930 10928 10926 10926 10925 10926 10926
10660 10657 10657 10659 10660 10659 10663 10665 10665 10667 10670 10671 10673 10674 10675 10677 10677 10677 10678 10682 10685 10687 10691 10694 10696 10697 10698 10700 10702 10705 10712 10720 10726 10732 10741 10751 10759 10763 10766 10773 10780 10785 10793 10804 10811 10815 10819 10825 10832 10835 10839 10844 10845 10844 10847 10852 10853 10857 10868 10876 10879 10881 10887 10891 10896 10898 10899 10904 10908 10911 10916 10920 10919 10918 10918 10921 10922 10923 10924 10924 10925 10926 10923 10921 10921 10921 10921 10921
10645 10642 10641 10646 10647 10645 10649 10652 10653 10655 10658 10659 10661 10664 10665 10667 10668 10667 10667 10670 10674 10677 10681 10685 10686 10687 10688 10689 10693 10698 10704 10710 10716 10723 10732 10741 10748 10753 10756 10762 10769 10775 10784 10795 10802 10805 10809 10818 10827 10829 10829 10830 10831 10833 10838 10846 10852 10858 10868 10875 10877 10878 10881 10883 10887 10890 10893 10899 10903 10906 10913 10917 10915 10913 10914 10916 10917 10917 10918 10919 10920 10920 10918 10916 10917 10917 10917 10917
10629 10627 10626 10631 10633 10631 10634 10639 10640 10643 10646 10647 10650 10652 10653 10656 10657 10656 10656 10659 10663 10667 10671 10674 10676 10677 10678 10680 10685 10691 10695 10701 10707 10713 10722 10730 10737 10742 10744 10749 10756 10765 10776 10787 10792 10793 10798 10808 10815 10817 10819 10823 10827 10834 10842 10849 10853 10857 10863 10869 10870 10871 10872 10874 10878 10881 10888 10894 10896 10900 10908 10910 10908 10908 10907 10908 10909 10909 10911 10913 10913 10914 10912 10911 10912 10913 10913 10912
10610 10611 10610 10614 10617 10617 10620 10625 10627 10629 10633 10635 10638 10640 10641 10644 10646 10645 10646 10649 10652 10656 10661 10665 10666 10667 10670 10673 10678 10683 10688 10694 10699 10704 10712 10719 10727 10731 10732 10736 10745 10756 10768 10777 10779 10780 10788 10797 10803 10808 10813 10819 10826 10834 10839 10840 10842 10846 10852 10858 10859 10860 10861 10863 10865 10872 10881 10885 10887 10894 10899 10899 10900 10901 10900 10900 10901 10902 10905 10906 10907 10908 10907 10907 10909 10910 10909 10908
10591 10593 10592 10594 10600 10604 10605 10609 10613 10615 10619 10622 10625 10627 10629 10631 10633 10634 10636 10639 10642 10646 10651 10654 10655 10657 10661 10664 10668 10675 10681 10687 10691 10695 10702 10710 10719 10723 10722 10725 10734 10747 10758 10765 10766 10770 10779 10788 10795 10801 10808 10814 10820 10824 10826 10826 10829 10834 10840 10845 10847 10847 10848 10850 10855 10866 10873 10875 10880 10888 10890 10890 10894 10895 10893 10893 10893 10896 10899 10900 10901 10902 10903 10904 10906 10906 10904 10903
10572 10574 10574 10573 10580 10588 10589 10591 10596 10600 10603 10607 10611 10613 10615 10618 10620 10624 10627 10630 10632 10634 10639 10643 10645 10647 10651 10655 10661 10668 10674 10679 10684 10687 10691 10700 10711 10714 10712 10715 10724 10737 10746 10751 10755 10761 10770 10781 10790 10795 10802 10808 10812 10815 10816 10817 10820 10824 10829 10834 10837 10838 10840 10842 10849 10859 10864 10868 10877 10882 10880 10883 10888 10888 10887 10888 10889 10891 10893 10894 10895 10898 10899 10901 10901 10900 10899 10898
10551 10553 10554 10554 10559 10566 10571 10575 10580 10583 10587 10592 10596 10599 10602 10605 10609 10613 10616 10619 10620 10622 10627 10633 10635 10637 10643 10648 10655 10662 10666 10670 10675 10678 10681 10690 10700 10702 10701 10705 10716 10726 10732 10738 10744 10750 10759 10772 10780 10784 10793 10800 10803 10805 10807 10808 10811 10816 10821 10825 10828 10831 10833 10836 10842 10850 10855 10862 10871 10873 10872 10877 10881 10882 10883 10884 10884 10886 10888 10889 10891 10893 10894 10895 10895 10894 10893 10893
10528 10530 10533 10536 10538 10543 10549 10557 10563 10566 10570 10575 10581 10585 10588 10592 10597 10601 10605 10607 10609 10610 10616 10622 10625 10627 10634 10640 10647 10654 10657 10660 10665 10668 10671 10679 10686 10688 10690 10697 10706 10712 10719 10727 10732 10738 10749 10762 10768 10773 10782 10789 10792 10795 10797 10800 10803 10808 10814 10818 10821 10824 10827 10831 10837 10843 10849 10857 10863 10865 10867 10872 10876 10877 10878 10878 10879 10882 10884 10885 10886 10887 10888 10889 10889 10888 10887 10888
10505 10507 10510 10515 10518 10520 10526 10535 10544 10549 10552 10557 10565 10570 10574 10578 10583 10589 10593 10595 10596 10599 10604 10611 10614 10618 10624 10631 10639 10644 10647 10652 10656 10658 10662 10669 10675 10677 10680 10687 10694 10700 10707 10715 10720 10728 10741 10753 10759 10765 10772 10781 10785 10786 10789 10793 10795 10798 10806 10811 10815 10819 10823 10828 10832 10837 10843 10849 10855 10858 10862 10868 10872 10871 10870 10871 10874 10876 10878 10879 10880 10881 10882 10883 10883 10882 10881 10881
10481 10484 10487 10492 10496 10499 10505 10512 10521 10530 10535 10539 10547 10555 10559 10563 10569 10575 10579 10582 10584 10587 10593 10599 10603 10608 10615 10622 10629 10636 10640 10645 10647 10648 10652 10660 10666 10669 10672 10679 10684 10689 10696 10704 10710 10720 10733 10743 10749 10754 10762 10774 10778 10778 10781 10783 10781 10786 10800 10809 10813 10816 10819 10822 10826 10830 10835 10840 10846 10852 10859 10863 10864 10863 10864 10866 10867 10870 10872 10873 10874 10874 10876 10877 10877 10876 10875 10875